TimeEDT,TemperatureF,Dew PointF,Humidity,Sea Level PressureIn,VisibilityMPH,Wind Direction,Wind SpeedMPH,Gust SpeedMPH,PrecipitationIn,Events,Conditions,WindDirDegrees,DateUTC
12:55 AM,43.3,39.4,86,29.79,10.0,Calm,Calm,-,N/A,,Clear,0,2012-11-01 04:55:00
1:55 AM,40.5,38.5,93,29.79,10.0,Calm,Calm,-,N/A,,Clear,0,2012-11-01 05:55:00
2:55 AM,38.7,36.1,91,29.78,10.0,Calm,Calm,-,N/A,,Clear,0,2012-11-01 06:55:00
3:55 AM,37.6,35.6,93,29.79,10.0,Calm,Calm,-,N/A,,Clear,0,2012-11-01 07:55:00
4:55 AM,37.9,36.7,95,29.78,10.0,Calm,Calm,-,N/A,,Mostly Cloudy,0,2012-11-01 08:55:00
5:55 AM,37.8,35.2,91,29.79,10.0,Calm,Calm,-,N/A,,Clear,0,2012-11-01 09:55:00
6:55 AM,37.8,34.3,87,29.80,10.0,Calm,Calm,-,N/A,,Clear,0,2012-11-01 10:55:00
7:55 AM,36.3,35.2,96,29.81,10.0,Calm,Calm,-,N/A,,Partly Cloudy,0,2012-11-01 11:55:00
8:55 AM,40.1,38.8,95,29.82,10.0,Calm,Calm,-,N/A,,Clear,0,2012-11-01 12:55:00
9:55 AM,52.3,38.1,58,29.83,10.0,NW,8.1,-,N/A,,Clear,320,2012-11-01 13:55:00
10:55 AM,55.2,34.7,46,29.83,10.0,WNW,12.7,-,N/A,,Clear,300,2012-11-01 14:55:00
11:55 AM,57.4,35.4,44,29.82,10.0,WNW,8.1,17.3,N/A,,Clear,290,2012-11-01 15:55:00
12:55 PM,59.4,35.1,40,29.79,10.0,WNW,10.4,19.6,N/A,,Partly Cloudy,290,2012-11-01 16:55:00
1:55 PM,60.6,36.0,40,29.76,10.0,West,10.4,-,N/A,,Scattered Clouds,280,2012-11-01 17:55:00
2:55 PM,60.1,35.4,40,29.75,10.0,West,13.8,23.0,N/A,,Mostly Cloudy,270,2012-11-01 18:55:00
3:55 PM,60.1,34.7,39,29.77,10.0,WNW,17.3,-,N/A,,Clear,290,2012-11-01 19:55:00
4:55 PM,58.3,34.9,41,29.78,10.0,WNW,8.1,-,N/A,,Partly Cloudy,290,2012-11-01 20:55:00
5:55 PM,56.8,35.8,45,29.79,10.0,NW,5.8,-,N/A,,Mostly Cloudy,320,2012-11-01 21:55:00
6:55 PM,52.7,36.0,53,29.81,10.0,West,3.5,-,N/A,,Clear,280,2012-11-01 22:55:00
7:55 PM,45.9,40.8,83,29.83,10.0,Calm,Calm,-,N/A,,Clear,0,2012-11-01 23:55:00
8:55 PM,43.7,40.8,90,29.84,10.0,Calm,Calm,-,N/A,,Clear,0,2012-11-02 00:55:00
9:55 PM,41.7,39.6,92,29.85,8.0,NNW,4.6,-,N/A,,Clear,340,2012-11-02 01:55:00
10:55 PM,42.4,36.1,78,29.86,10.0,SW,3.5,-,N/A,,Clear,230,2012-11-02 02:55:00
11:55 PM,39.7,38.7,96,29.87,10.0,Calm,Calm,-,N/A,,Clear,0,2012-11-02 03:55:00